ヴァイサラ-オテルマ彗星

139P/Vaisala-Oterma (1998)

English version
Home page
Updated on July 11, 1999

---------------------------------------------------------------------

・ プロフィール

符号 139P/1998 WG22
再発見日 1998年11月18日
再発見光度 19.0等
再発見者 Lincoln Laboratory Near-Earth Asteroid Research project

・ 写真集

・ 軌道要素

   The following improved orbital elements by Kenji Muraoka, are 
  from 86 observations 1939 to 1999, perturbations by 9 Plantes, 
  Moon and 5 minor planets were taken into account. 
   The mean residual is +/- 0.82 arc seconds.

      Epoch  =  1998 Sept. 24.0  TT      JDT = 2451080.5
          T  =  1998 Sept. 28.80925      +/- 0.04745 (m.e.) TT
       Peri. =  165.54767                +/- 0.01960
       Node  =  242.46830                +/- 0.01086   (2000.0)
       Incl. =    2.33247                +/- 0.00036
          q  =    3.3814917              +/- 0.0000700 AU
          e  =    0.2483321              +/- 0.0000187
          a  =    4.4986515              +/- 0.0000323 AU
          n  =    0.10329530             +/- 0.00000111
          P  =    9.542                  +/- 0.0001029  years

・ 星図

・ 光度変化

        m1 = 11.0 + 5 logΔ + 10.0 log r

---------------------------------------------------------------------

軌道要素は村岡健治氏の計算によるものです。
星図は StellaNavigator Ver.2.0 for Windows (アストロアーツ 編著 / アスキー出版局刊) で作成したものです。
光度グラフはComet for Windowsで作成したものです。

---------------------------------------------------------------------

Copyright(C) Seiichi Yoshida (comet@aerith.net). All rights reserved.